OK1CMJ-5 Weather Reports


time (UTC)temp
C
wind
direction
speed
KPH
gust
KPH
rain 1hr
cm
rain 24hr
cm
rain mn
cm
humidity
%
barometer
mb
20260904055952 18 342 1.6 6.4 0.00 0.00 0.00 47 1021.1
20260904054152 18 7 0.0 8.0 0.00 0.00 0.00 48 1021.6
20260904051452 17 320 1.6 4.8 0.00 0.00 0.00 49 1021.6
20260904050552 17 282 1.6 6.4 0.00 0.00 0.00 50 1021.6
20260904045652 17 323 3.2 6.4 0.00 0.00 0.00 51 1021.3
20260904044752 16 256 3.2 6.4 0.00 0.00 0.00 52 1021.3
20260904042952 16 308 1.6 4.8 0.00 0.00 0.00 53 1021.4
20260904041152 16 320 1.6 4.8 0.00 0.00 0.00 52 1021.5
20260904040252 16 311 0.0 6.4 0.00 0.00 0.00 51 1021.5
20260904035352 16 131 1.6 4.8 0.00 0.00 0.00 52 1021.5
20260904034452 16 234 1.6 6.4 0.00 0.00 0.00 52 1021.6
20260904033552 16 258 1.6 6.4 0.00 0.00 0.00 53 1021.6
20260904032652 16 285 1.6 4.8 0.00 0.00 0.00 52 1021.8
20260904031752 16 241 1.6 6.4 0.00 0.00 0.00 52 1021.8
20260904030852 16 283 1.6 9.7 0.00 0.00 0.00 52 1021.7
20260904025952 16 317 0.0 6.4 0.00 0.00 0.00 51 1021.6
20260904025052 16 246 1.6 6.4 0.00 0.00 0.00 51 1021.9
20260904024152 16 331 1.6 4.8 0.00 0.00 0.00 50 1021.9
20260904023252 16 303 1.6 4.8 0.00 0.00 0.00 50 1021.9
20260904022352 16 316 0.0 6.4 0.00 0.00 0.00 50 1021.8
20260904021452 16 311 1.6 4.8 0.00 0.00 0.00 49 1021.8
20260904020552 16 315 1.6 4.8 0.00 0.00 0.00 49 1021.7
20260904015652 16 307 1.6 6.4 0.00 0.00 0.00 48 1021.6
20260904014752 17 320 3.2 6.4 0.00 0.00 0.00 47 1021.6
20260904011152 17 322 0.0 8.0 0.00 0.00 0.00 47 1022.0
20260904010252 17 315 1.6 4.8 0.00 0.00 0.00 47 1022.0
20260904004452 17 303 0.0 8.0 0.00 0.00 0.00 47 1022.2
20260904003552 17 314 1.6 8.0 0.00 0.00 0.00 47 1021.9
20260904002652 17 267 1.6 12.9 0.00 0.00 0.00 47 1022.2
20260904001752 17 247 1.6 6.4 0.00 0.00 0.00 48 1022.2
20260904000852 17 264 1.6 6.4 0.00 0.00 0.00 49 1022.1
20260903235952 17 286 0.0 3.2 0.00 0.00 0.00 50 1022.1
20260903235052 17 270 0.0 3.2 0.00 0.00 0.00 50 1022.3
20260903234152 16 270 0.0 3.2 0.00 0.00 0.00 51 1022.5
20260903233252 16 312 0.0 3.2 0.00 0.00 0.00 51 1022.7
20260903232352 16 331 0.0 3.2 0.00 0.00 0.00 51 1022.6
20260903231452 16 320 0.0 4.8 0.00 0.00 0.00 51 1022.6
20260903230552 16 328 1.6 4.8 0.00 0.00 0.00 52 1022.6
20260903225652 16 314 1.6 6.4 0.00 0.00 0.00 52 1022.4
20260903224752 16 354 1.6 6.4 0.00 0.00 0.00 52 1022.5
20260903222952 16 354 1.6 6.4 0.00 0.00 0.00 51 1022.3
20260903220252 16 278 3.2 9.7 0.00 0.00 0.00 52 1022.5
20260903215352 16 293 1.6 8.0 0.00 0.00 0.00 52 1022.6
20260903214452 16 277 1.6 6.4 0.00 0.00 0.00 52 1022.6
20260903210852 16 270 1.6 4.8 0.00 0.00 0.00 53 1022.9
20260903205952 16 233 1.6 6.4 0.00 0.00 0.00 52 1022.8
20260903205052 16 268 0.0 9.7 0.00 0.00 0.00 52 1022.7
20260903204152 16 280 3.2 9.7 0.00 0.00 0.00 51 1022.8
20260903203252 16 298 1.6 4.8 0.00 0.00 0.00 51 1022.6
20260903201452 17 294 3.2 6.4 0.00 0.00 0.00 51 1022.7
20260903200552 17 321 1.6 3.2 0.00 0.00 0.00 50 1022.6
20260903195651 17 1 1.6 6.4 0.00 0.00 0.00 51 1022.8
20260903194751 17 297 0.0 6.4 0.00 0.00 0.00 52 1022.5
20260903193852 16 320 3.2 6.4 0.00 0.00 0.00 54 1022.7
20260903192952 16 353 3.2 8.0 0.00 0.00 0.00 56 1022.8
20260903192051 16 319 0.0 6.4 0.00 0.00 0.00 58 1022.8
20260903190252 16 299 1.6 4.8 0.00 0.00 0.00 62 1022.9
20260903183551 16 313 3.2 11.3 0.00 0.00 0.00 60 1023.2
20260903182652 16 314 1.6 12.9 0.00 0.00 0.00 60 1023.0
20260903181752 16 311 1.6 12.9 0.00 0.00 0.00 57 1023.1
20260903180852 16 284 3.2 12.9 0.00 0.00 0.00 54 1022.8
20260903175952 16 283 1.6 12.9 0.00 0.00 0.00 48 1022.7
20260903175051 16 304 3.2 12.9 0.00 0.00 0.00 46 1022.6
20260903174152 17 296 3.2 12.9 0.00 0.00 0.00 43 1022.4